sat.trackr.live / text

‹ back to catalog

SKYSAT-C1

NORAD 41601 · 2016-040C

PAYLOAD ACTIVE UNKNOWN

§ Identity

Operator
Country
US
Launch date
2016-06-22
Launch site
SRILR
Launch vehicle
Mass (kg)
RCS (m²)
0.38

Purposes: earth_obs

External: N2YO · Heavens-Above · Gunter

§ Orbital elements

Epoch: 2026-09-14T12:58:57.120096Z

Period
93.65 min
Inclination
96.9511°
Eccentricity
0.0004156
Mean motion
15.37603164 rev/d
Perigee alt
450.4 km
Apogee alt
456.0 km
Semi-major
6,831.3 km
B*
1.9105e-4
RAAN
284.4734°
Arg perigee
75.5363°
Mean anomaly
284.6344°
Rev number
57,159

§ Raw data

SKYSAT-C11 41601U 16040C   26257.54093889  .00006976  00000+0  19105-3 0  99972 41601  96.9511 284.4734 0004156  75.5363 284.6344 15.37603164571596

JSON: /api/v1/satellites/41601 · /tle

For live sub-satellite position, see the globe view (requires WebGL).

§ Visibility from observer

Set your observer location to see the next 7 days of passes ≥ 10°. The values pass through the URL so the page stays shareable.

No JS? Fill the form by hand. The geolocation button needs JavaScript.